Regional Weather Roundup
Issued by NWS Sioux Falls, SD

Home | Current Version | Previous Version | Graphics & Text | Print | Product List | Glossary Off
Versions: 1 2 3 4 5 6 7 8 9 10 11 12 13 14 15 16 17 18 19 20 21 22 23 24 25 26 27 28 29 30 31 32 33 34 35 36 37 38 39 40 41 42 43 44 45 46 47 48 49 50

000
ASUS43 KFSD 031602
RWRFSD

WEATHER ROUNDUP FOR SE SOUTH DAKOTA/SW MINNESOTA/NW IOWA
NATIONAL WEATHER SERVICE SIOUX FALLS SD
1000 AM CST TUE MAR 03 2015

NOTE: "FAIR" INDICATES FEW OR NO CLOUDS BELOW 12,000 FEET WITH NO
SIGNIFICANT WEATHER AND OR OBSTRUCTIONS TO VISIBILITY.


SDZ038>040-050-052>070-031700-
SOUTHEAST SOUTH DAKOTA

CITY           SKY/WX    TMP DP  RH WIND       PRES   REMARKS
CHAMBERLAIN    NOT AVBL
HURON          PTSUNNY   18  10  71 NW32G40   29.93R BLWGSNOWWCI  -2
MADISON        LGT SNOW  18  18 100 N29G38    29.79R VSB 1   WCI  -2
MITCHELL       LGT SNOW  20  15  81 NW30G39   29.92R VSB 3/4 WCI   1
SIOUX FALLS    LGT SNOW  23  18  81 N26G37    29.76R BLWGSNOWWCI   6
WINNER         LGT SNOW  17   9  70 N23       30.00R WCI  -1
YANKTON        PTSUNNY  N/A N/A N/A NW31G47   29.84R
$$

MNZ071-072-080-081-089-090-097-098-031700-
SOUTHWEST MINNESOTA

CITY           SKY/WX    TMP DP  RH WIND       PRES   REMARKS
FAIRMONT       MOSUNNY   27  21  80 W14       29.69R WCI  15
JACKSON        LGT SNOW  28  23  80 W14       29.69S WCI  17
LUVERNE        MOSUNNY   28  25  86 NW14      29.73R WCI  17
MARSHALL       CLOUDY    19  12  73 N26G41    29.77R VSB 3/4 WCI   1
MONTEVIDEO     LGT SNOW  19  19 100 N21G29    29.77R WCI   3
PIPESTONE      SNOW      21  19  93 N20G36    29.73R VSB 1/4 WCI   6
REDWOOD FALLS  CLOUDY    27  22  81 W18       29.70S WCI  14
TRACY          CLOUDY    24  20  85 NW24G30   29.74R FOG     WCI   9
WINDOM         LGT SNOW  27  25  93 W12       29.69S VSB 3/4 WCI  16
WORTHINGTON    CLOUDY    27  21  80 W16       29.72S WCI  14
$$

IAZ001>003-012>014-020>022-031-032-NEZ013-014-SDZ071-031700-
NORTHWEST IOWA

CITY           SKY/WX    TMP DP  RH WIND       PRES   REMARKS
DENISON        CLOUDY    30  30 100 NW15      29.72R FOG     WCI  19
ESTHERVILLE    PTSUNNY   27  23  85 W15       29.69R WCI  15
SIOUX CITY     CLOUDY    33  27  78 NW18G26   29.75R WCI  22
SPENCER        PTSUNNY   30  24  78 W18       29.71R WCI  18
$$

ABBREVIATIONS USED IN REMARKS
   TC - TEMPERATURE IN CELSIUS
  WCI - WIND CHILL INDEX
   HX - HEAT INDEX
  VSB - VISIBILITY



USA.gov is the U.S. government's official web portal to all federal, state and local government web resources and services.